Regional Weather Roundup
Issued by NWS

Home | Current Version | Previous Version | Text Only | Print | Product List | Glossary On
Versions: 1 2 3 4 5 6 7 8 9 10 11 12 13 14 15 16 17 18 19 20 21 22 23 24 25 26 27 28 29 30 31 32 33 34 35 36 37 38 39 40 41 42 43 44 45 46 47 48 49 50
000
ASUS43 KBIS 242110
RWRND

NORTH DAKOTA REGIONAL WEATHER ROUNDUP
NATIONAL WEATHER SERVICE BISMARCK ND
400 PM CDT THU APR 24 2014

NOTE: "FAIR" INDICATES FEW OR NO CLOUDS BELOW 12,000 FEET WITH NO
SIGNIFICANT WEATHER AND/OR OBSTRUCTIONS TO VISIBILITY.


NDZ001>003-009>011-017-242200-
NORTHWEST NORTH DAKOTA

CITY           SKY/WX    TMP DP  RH WIND       PRES   REMARKS
WILLISTON      PTSUNNY   59  28  30 NW15      29.71F
MINOT          PTSUNNY   55  38  52 NW16      29.66R
MINOT AFB      DRIZZLE   57  37  47 N18       29.66R
$$

NDZ018>021-031>035-040>046-242200-
SOUTHWEST NORTH DAKOTA

CITY           SKY/WX    TMP DP  RH WIND       PRES   REMARKS
BISMARCK       PTSUNNY   63  18  17 NW14G24   29.69S
DICKINSON      PTSUNNY   57  20  23 W16G31    29.71S
GARRISON         N/A     56  29  35 NW13G29   29.68S
HETTINGER ARPT MOSUNNY   60  17  18 NW24G35   29.75S
$$

NDZ004>008-012>016-024-026-027-054-242200-
NORTHEAST NORTH DAKOTA

CITY           SKY/WX    TMP DP  RH WIND       PRES   REMARKS
GRAND FORKS    CLOUDY    44  40  85 SE5       29.69F
GRND FRKS AFB  CLOUDY    44  44  99 VRB3      29.69F
DEVILS LAKE    SUNNY     54  43  66 SE3       29.64F
$$

NDZ022-023-025-028>030-036>039-047>053-242200-
SOUTHEAST NORTH DAKOTA

CITY           SKY/WX    TMP DP  RH WIND       PRES   REMARKS
FARGO          CLOUDY    49  43  80 VRB6      29.69F
JAMESTOWN      CLOUDY    58  30  34 NW18G24   29.64S
$$




USA.gov is the U.S. government's official web portal to all federal, state and local government web resources and services.